Location: Donald C. Martin Observatory
(38.3885°N, 82.3916°W)
Time: 15:03:14
(UTC-05:00)

Daily predictions for brighter satellites

Satellite Brightness Start Highest point End
(mag) Time Altitude Azimuth Time Altitude Azimuth Time Altitude Azimuth
Cosmos 2278 Rocket 3.2 17:57:57 10° N 18:02:35 25° ENE 18:07:10 10° ESE
Cosmos 1328 Rocket 3.7 17:59:49 10° N 18:04:10 52° E 18:08:29 10° SSE
Cosmos 540 Rocket 4.4 18:01:56 10° SSE 18:06:21 29° E 18:10:46 10° NE
USA 215 3.8 18:02:24 10° E 18:08:25 40° NNE 18:14:26 10° NW
Cosmos 2151 3.9 18:05:27 10° SSE 18:08:57 26° E 18:12:28 10° NNE
Cosmos 332 Rocket 3.8 18:04:56 10° S 18:09:42 67° ESE 18:14:31 10° NNE
Cosmos 1908 3.2 18:06:38 10° N 18:10:32 89° ENE 18:14:25 10° S
Cosmos 1515 Rocket 3.9 18:06:45 10° N 18:11:03 45° E 18:15:19 10° SSE
Abrixas 4.4 18:11:41 10° S 18:13:42 17° SE 18:15:44 10° E
Cosmos 1844 3.9 18:08:16 10° NNW 18:13:54 51° ENE 18:19:30 10° SE
SKYMED 2 3.9 18:10:26 10° NNE 18:14:37 45° E 18:18:46 10° S
SL-14 R/B 4.1 18:12:12 10° SSE 18:15:36 29° E 18:19:02 10° NNE
Cosmos 1674 3.1 18:13:35 10° SSW 18:17:21 65° W 18:21:11 10° N
SPOT 3 Rocket 3.8 18:12:35 10° S 18:17:43 78° WSW 18:22:53 10° NNW
Elektron 3 4.2 18:12:50 10° NW 18:17:57 76° NE 18:20:59 10° SE
MSX 3.9 18:12:17 10° SSE 18:18:00 88° ENE 18:23:46 10° NNW
Thor Agena Rocket 3.8 18:14:23 10° N 18:19:39 76° WNW 18:24:48 10° SSW
Cosmos 1151 Rocket 3.5 18:16:43 10° N 18:20:42 37° ENE 18:24:41 10° SSE
Cosmos 1634 Rocket 4.0 18:14:57 10° N 18:21:03 58° E 18:27:05 10° SSE
Cosmos 1484 Rocket 2.8 18:17:20 10° SSE 18:21:10 60° ENE 18:25:05 10° N
COSMOS 2428 3.3 18:17:24 10° SW 18:23:02 59° WNW 18:28:42 10° NNE
Cosmos 1500 Rocket 3.5 18:19:51 10° S 18:24:07 67° E 18:28:26 10° NNE
Cosmos 1125 Rocket 3.8 18:19:46 10° N 18:24:42 41° ENE 18:29:35 10° SE
Cosmos 990 Rocket 4.5 18:20:30 10° NNW 18:25:44 67° WSW 18:30:56 10° S
Cosmos 2237 Rocket 2.5 18:21:14 10° S 18:26:35 47° ESE 18:31:58 10° NE
BREEZE-M DEB (TANK) 2.9 18:22:47 10° NW 18:30:27 78° SW 18:33:28 10° SE
ALOS 3.7 18:28:18 10° ESE 18:31:04 16° ENE 18:33:50 10° NNE
SL-16 R/B 3.4 18:27:19 10° SSE 18:31:26 21° E 18:34:21 14° ENE
Cosmos 44 3.6 18:26:48 10° SSW 18:31:56 53° ESE 18:36:41 11° NE
IDEFIX/ARIANE 42P 4.0 18:29:00 10° SSW 18:33:54 42° W 18:38:51 10° NNW
Cosmos 1300 2.9 18:31:29 10° N 18:35:13 49° E 18:38:56 10° SSE
Cosmos 1726 2.2 18:33:37 10° N 18:37:19 54° E 18:41:01 10° SSE
Hubble Space Telescope 3.4 18:36:08 10° SW 18:38:28 15° SSW 18:40:48 10° SSE
Cosmos 841 Rocket 4.2 18:34:08 10° SSW 18:39:18 55° WNW 18:44:29 10° N
Cosmos 371 Rocket 3.3 18:35:18 10° SSW 18:40:06 83° WNW 18:44:56 10° NNE
Sich 1 4.5 18:37:53 10° SE 18:40:51 18° E 18:40:52 18° E
NOSS 0 Rocket 3.9 18:35:10 10° SSW 18:41:22 78° ESE 18:47:36 10° NNE
BREEZE-M DEB (TANK) 1.8 18:39:23 10° SW 18:41:58 67° SE 18:43:04 27° ENE
CZ-4 R/B 4.0 18:39:19 10° SSW 18:42:25 23° W 18:45:32 10° NW
Lacrosse 5 rocket 2.6 18:39:57 10° NNW 18:42:54 21° NE 18:43:38 20° NE
OTV 4 0.6 18:45:03 10° W 18:48:00 67° S 18:49:25 27° ESE
FREGAT/IRIS 4.3 18:46:23 10° SE 18:52:41 - N 18:47:34 19° ESE
CENTAUR R/B 3.7 18:44:56 10° WSW 18:50:36 38° NW 18:56:59 10° NNE
Meteor 1-11 4.2 18:47:32 10° S 18:53:07 68° E 18:58:50 10° NNE
Resurs 01 Rocket 2.9 18:54:22 22° NE 18:54:22 22° NE 18:56:58 10° NNE
Cosmos 2084 3.8 18:51:22 10° SW 18:55:12 53° NW 18:58:06 16° NNE
Cosmos 44 Rocket 4.0 18:54:40 10° SW 18:59:42 54° NW 19:04:27 11° NNE
Meteor 1-28 Rocket 3.3 18:56:22 10° N 19:00:05 73° WNW 19:03:46 10° SSW
Cosmos 1844 Rocket 3.7 18:54:56 10° NW 19:00:21 48° WSW 19:05:43 10° S
Lacrosse 5 4.2 19:00:25 10° NNW 19:01:50 11° NNW 19:03:15 10° N
COSMO-SKYMED 1 3.5 18:58:25 10° N 19:02:37 49° WNW 19:06:47 10° SSW
CZ-3A R/B 3.3 18:58:11 10° NW 19:02:43 38° NE 19:04:51 26° E
Aureole 2 Rocket 2.5 18:59:18 10° S 19:02:49 64° ESE 19:04:38 28° NNE
Cosmos 1707 Rocket 4.0 19:02:18 10° N 19:06:21 37° ENE 19:10:21 10° SSE
FengYun 1-2 T 4.5 19:04:16 10° SE 19:09:31 43° ENE 19:14:43 10° N
Cosmos 1461 3.5 19:06:35 10° S 19:10:27 35° ESE 19:10:31 35° ESE
SJ-6B 2.7 19:08:21 10° SSE 19:12:21 73° ENE 19:16:29 10° N
Cosmos 2279 Rocket 3.9 19:07:10 10° N 19:13:24 88° E 19:19:38 10° S
Cosmos 1980 4.1 19:08:18 10° SW 19:13:54 62° WNW 19:19:33 10° NNE
Cosmos 1666 Rocket 3.7 19:11:04 10° SSE 19:15:11 45° E 19:15:25 45° E
Intelsat 5-1 Rocket 4.5 19:15:51 10° S 19:17:01 11° SSE 19:18:25 10° SSE
Milstar 3 4.2 19:11:47 10° WSW 19:17:31 30° S 19:23:49 11° SE
Cosmos 2058 3.5 19:16:02 10° SSW 19:20:04 56° W 19:24:07 10° N
FENGYUN 3A 3.7 19:18:57 10° SSE 19:24:08 54° ENE 19:29:22 10° N
Cosmos 304 Rocket 3.6 19:21:16 10° SSW 19:26:05 83° ESE 19:28:08 35° NNE
Cosmos 2333 Rocket 3.4 19:21:12 10° SW 19:26:30 41° WNW 19:31:50 10° N
Cosmos 1703 3.2 19:24:07 10° S 19:28:01 82° W 19:29:16 42° N
Atlas Centaur 2 4.4 19:29:28 10° SW 19:30:08 10° SSW 19:30:47 10° SSW
Nadezhda 4 Rocket 3.9 19:26:00 10° S 19:32:11 71° E 19:38:28 10° NNE
Cosmos 372 Rocket 4.4 19:31:38 10° NNW 19:36:39 60° WSW 19:41:39 10° S
Cosmos 2219 Rocket 4.1 19:35:30 10° WSW 19:40:06 25° WNW 19:44:44 10° N
Cosmos 1340 Rocket 4.2 19:39:13 10° SSW 19:42:54 37° WNW 19:45:23 18° NNW
Cosmos 1356 Rocket 3.7 19:40:13 10° SSW 19:43:35 60° SSW 19:43:35 60° SSW
Cosmos 2278 Rocket 3.2 19:41:27 10° NW 19:46:52 46° WSW 19:52:13 10° S
Cosmos 1092 Rocket 3.9 19:43:13 10° S 19:49:29 70° E 19:51:46 41° NNE
USA 215 3.6 19:45:33 14° SSE 19:51:10 63° SW 19:57:41 10° NW
Cosmos 1626 3.4 19:49:49 10° SSW 19:52:36 40° WSW 19:52:36 40° WSW
Aureole 1 Rocket 4.3 19:56:21 10° S 19:59:14 40° S 19:59:14 40° S
ALOS 3.0 20:03:32 10° S 20:08:03 50° W 20:12:37 10° NNW
Cosmos 2237 Rocket 4.2 20:06:24 10° WSW 20:10:52 24° NW 20:14:53 12° N
BREEZE-M DEB (TANK) 4.5 20:06:22 10° SSW 20:35:26 - NE 20:08:58 36° SSE
Spot 2 Rocket 4.2 20:08:34 10° S 20:13:29 52° W 20:18:24 10° NNW
SL-16 R/B 2.9 20:09:40 10° SW 20:15:07 49° WNW 20:16:18 42° NNW
Lacrosse 5 rocket 3.9 20:18:30 10° NW 20:19:24 16° WNW 20:19:24 16° WNW
Resurs 01 Rocket 3.9 20:31:56 20° NW 20:31:56 20° NW 20:33:39 10° NW
USA 229 DEB 4.0 20:26:20 10° SSW 20:31:47 60° SW 20:31:47 60° SW
USA 229 4.0 20:26:26 10° SSW 20:31:49 59° SW 20:31:49 59° SW
H-2A ROCKET BODY 4.2 20:54:53 10° W 21:02:29 27° SW 21:02:29 27° SW
